Content
SEND FEEDBACK

Daily
Averages
Monthly
Summary
Netherlands

MAASTRICHT, NETHERLANDS


Home > Europe > Netherlands
Elevation: 380 feet     Latitude: 50 55N     Longitude: 005 47E

WEATHER
 
SELECT A DAY
Number of Records: 300,931;   Date Range: 7/1/96 - 7/11/14
 
SHARE

PRINT THIS DATA

[ ← Previous Day ]
WEATHER ALMANAC - APRIL 5, 2013
[ Next Day → ]
[ °C ]   °F
Weather ElementAverageHighLow
Temperature35.5 °F38 °F (5:00 pm)30.2 °F (5:55 am)
Dewpoint28.3 °F30.2 °F (6:25 pm)26 °F (5:00 am)
Humidity73.7 %86 % (5:55 am)62 % (5:00 pm)
Barometer29.84 in29.99 in (11:00 pm)29.77 in (12:55 am)
Wind Speed10.7 mph16.1 mph (12:55 pm)
Weather ElementAverage
Visibility6.3 mi
Wind DirectionNE (48.5 °)

Weather ElementTotal
Precipitation---
Heating Degree Days30.9 (Base 65)
Averaged from 55 records on April 5, 2013
WEATHER CONDITIONS BREAKOUT
WIND DIRECTION BREAKOUT
WEATHER BY HOUR - APRIL 5, 2013
[ °C ]   °F
Local TimeTemperatureDewpointHumidityBarometerVisibilityWind DirectionWind SpeedGust SpeedPrecipitationEventsConditions
12:55 AM37.4 °F26.6 °F65 %29.77 in6.2 miENE (60°)11.5 mph
1:25 AM35.6 °F26.6 °F70 %29.77 in6.2 miENE (70°)12.7 mph
1:55 AM35.6 °F26.6 °F70 %29.77 in6.2 miENE (70°)10.4 mph
2:00 AM34.0 °F27.0 °F65 %29.81 in8.0 miENE (70°)11.2 mphPartly Cloudy
2:25 AM33.8 °F26.6 °F75 %29.77 in6.2 miENE (70°)12.7 mph
2:55 AM33.8 °F26.6 °F75 %29.77 in6.2 miENE (70°)13.8 mph
3:25 AM33.8 °F26.6 °F75 %29.77 in6.2 miENE (60°)12.7 mph
3:55 AM32.0 °F26.6 °F80 %29.77 in6.2 miENE (70°)12.7 mph
4:25 AM32.0 °F26.6 °F80 %29.77 in6.2 miENE (60°)10.4 mph
4:55 AM32.0 °F26.6 °F80 %29.77 in6.2 miENE (60°)9.2 mphOvercast
5:00 AM32.0 °F26.0 °F71 %29.81 in7.0 miNE (50°)6.7 mphOvercast
5:25 AM32.0 °F26.6 °F80 %29.77 in6.2 miNE (40°)6.9 mphOvercast
5:55 AM30.2 °F26.6 °F86 %29.77 in5.6 miNE (40°)8.1 mphOvercast
6:25 AM32.0 °F26.6 °F80 %29.77 in5.0 miNE (40°)9.2 mphOvercast
6:55 AM32.0 °F26.6 °F80 %29.77 in5.6 miNE (40°)10.4 mphOvercast
7:25 AM33.8 °F28.4 °F81 %29.77 in5.6 miNE (40°)8.1 mphOvercast
7:55 AM33.8 °F28.4 °F81 %29.77 in5.6 miNE (50°)9.2 mphOvercast
8:00 AM34.0 °F28.0 °F69 %29.82 in6.0 miNE (50°)8.9 mphMist
8:25 AM33.8 °F28.4 °F81 %29.80 in6.2 miNE (50°)9.2 mphOvercast
8:55 AM35.6 °F28.4 °F75 %29.80 in6.2 miNE (50°)9.2 mphOvercast
9:25 AM35.6 °F28.4 °F75 %29.80 in6.2 miNE (50°)10.4 mphOvercast
9:55 AM35.6 °F26.6 °F70 %29.80 in6.2 miNE (50°)12.7 mphOvercast
10:25 AM35.6 °F28.4 °F75 %29.80 in6.2 miNE (50°)13.8 mphOvercast
10:55 AM35.6 °F28.4 °F75 %29.83 in6.2 miNE (40°)15.0 mphOvercast
11:00 AM36.0 °F28.0 °F63 %29.85 in11.0 miNE (40°)13.4 mphOvercast
11:25 AM35.6 °F28.4 °F75 %29.83 in6.2 miNE (40°)15.0 mphOvercast
11:55 AM35.6 °F28.4 °F75 %29.83 in6.2 miNE (40°)15.0 mphOvercast
12:25 PM35.6 °F28.4 °F75 %29.83 in6.2 miNE (40°)15.0 mphOvercast
12:55 PM35.6 °F28.4 °F75 %29.83 in6.2 miNE (50°)16.1 mphOvercast
1:25 PM35.6 °F28.4 °F75 %29.83 in6.2 miENE (60°)15.0 mphOvercast
1:55 PM35.6 °F28.4 °F75 %29.83 in6.2 miNE (50°)15.0 mphOvercast
2:00 PM36.0 °F28.0 °F64 %29.88 in9.0 miNE (50°)13.4 mphPartly Cloudy
2:25 PM35.6 °F28.4 °F75 %29.83 in5.6 miNNE (30°)13.8 mphOvercast
2:55 PM35.6 °F28.4 °F75 %29.86 in5.0 miNNE (30°)13.8 mphOvercast
3:25 PM37.4 °F28.4 °F70 %29.86 in6.2 miNE (50°)15.0 mphOvercast
3:55 PM37.4 °F28.4 °F70 %29.86 in6.2 miNE (50°)12.7 mphOvercast
4:25 PM37.4 °F28.4 °F70 %29.86 in6.2 miENE (60°)13.8 mphOvercast
4:55 PM37.4 °F28.4 °F70 %29.86 in6.2 miNE (50°)12.7 mphOvercast
5:00 PM38.0 °F29.0 °F62 %29.89 in6.0 miNE (50°)11.2 mphOvercast
5:25 PM37.4 °F28.4 °F70 %29.86 in5.6 miNE (50°)11.5 mphOvercast
5:55 PM37.4 °F28.4 °F70 %29.86 in6.2 miNE (40°)9.2 mphOvercast
6:25 PM37.4 °F30.2 °F75 %29.86 in6.2 miNE (40°)11.5 mphOvercast
6:55 PM37.4 °F30.2 °F75 %29.89 in6.2 miNE (40°)10.4 mphOvercast
7:25 PM37.4 °F30.2 °F75 %29.89 in6.2 miNE (50°)8.1 mphOvercast
7:55 PM37.4 °F30.2 °F75 %29.89 in6.2 miNE (40°)6.9 mphOvercast
8:00 PM37.0 °F30.0 °F66 %29.93 in6.0 miNE (50°)6.7 mphPartly Cloudy
8:25 PM37.4 °F30.2 °F75 %29.89 in6.2 miNE (40°)8.1 mphOvercast
8:55 PM37.4 °F30.2 °F75 %29.92 in6.2 miNE (40°)6.9 mphOvercast
9:25 PM37.4 °F30.2 °F75 %29.92 in6.2 miNE (40°)5.8 mphOvercast
9:55 PM37.4 °F30.2 °F75 %29.95 in6.2 miNE (40°)5.8 mphOvercast
10:25 PM37.4 °F30.2 °F75 %29.95 in6.2 miNE (40°)5.8 mphOvercast
10:55 PM37.4 °F30.2 °F75 %29.95 in6.2 miNE (40°)5.8 mphOvercast
11:00 PM37.0 °F30.0 °F67 %29.99 in7.0 miNE (40°)6.7 mphOvercast
11:25 PM37.4 °F30.2 °F75 %29.95 in6.2 miNE (40°)8.1 mphOvercast
11:55 PM37.4 °F30.2 °F75 %29.95 in6.2 miNE (50°)6.9 mphOvercast
Hourly data recorded from EHBK, located miles away from Maastricht, Netherlands







STORIES FROM OUR PARTNERS